| time (UTC) | temp F | wind direction | speed MPH | gust MPH | rain 1hr in | rain 24hr in | rain mn in | humidity % | barometer mb |
| 20260505101815 | 40 | 315 | 3.0 | 3.0 | 0.00 | 0.00 | 0.00 | 59 | 1007.3 |
| 20260505101310 | 40 | 292 | 1.0 | 5.0 | 0.00 | 0.00 | 0.00 | 59 | 1007.4 |
| 20260505100807 | 40 | 284 | 3.0 | 3.0 | 0.00 | 0.00 | 0.00 | 58 | 1007.3 |
| 20260505100303 | 41 | 298 | 2.0 | 6.0 | 0.00 | 0.00 | 0.00 | 58 | 1007.4 |
| 20260505095759 | 41 | 284 | 1.0 | 5.0 | 0.00 | 0.00 | 0.00 | 58 | 1007.6 |
| 20260505095257 | 41 | 282 | 2.0 | 5.0 | 0.00 | 0.00 | 0.00 | 57 | 1007.3 |
| 20260505094752 | 41 | 278 | 4.0 | 5.0 | 0.00 | 0.00 | 0.00 | 57 | 1007.3 |
| 20260505094249 | 41 | 273 | 3.0 | 6.0 | 0.00 | 0.00 | 0.00 | 57 | 1007.1 |
| 20260505093745 | 41 | 243 | 1.0 | 3.0 | 0.00 | 0.00 | 0.00 | 58 | 1007.4 |
| 20260505093243 | 41 | 287 | 3.0 | 3.0 | 0.00 | 0.00 | 0.00 | 58 | 1007.2 |
| 20260505092740 | 41 | 256 | 0.0 | 1.0 | 0.00 | 0.00 | 0.00 | 58 | 1007.1 |
| 20260505092238 | 41 | 278 | 1.0 | 1.0 | 0.00 | 0.00 | 0.00 | 57 | 1007.0 |
| 20260505091735 | 41 | 232 | 1.0 | 1.0 | 0.00 | 0.00 | 0.00 | 56 | 1007.0 |
| 20260505091233 | 42 | 289 | 1.0 | 3.0 | 0.00 | 0.00 | 0.00 | 55 | 1006.9 |
| 20260505090730 | 42 | 278 | 1.0 | 3.0 | 0.00 | 0.00 | 0.00 | 55 | 1006.8 |
| 20260505090229 | 42 | 264 | 2.0 | 3.0 | 0.00 | 0.00 | 0.00 | 54 | 1006.9 |
| 20260505085726 | 42 | 226 | 2.0 | 2.0 | 0.00 | 0.00 | 0.00 | 53 | 1006.7 |
| 20260505085224 | 42 | 264 | 2.0 | 10.0 | 0.00 | 0.00 | 0.00 | 53 | 1006.7 |
| 20260505084721 | 42 | 296 | 2.0 | 5.0 | 0.00 | 0.00 | 0.00 | 53 | 1006.8 |
| 20260505084220 | 42 | 317 | 3.0 | 3.0 | 0.00 | 0.00 | 0.00 | 54 | 1006.5 |
| 20260505083716 | 42 | 313 | 3.0 | 6.0 | 0.00 | 0.00 | 0.00 | 53 | 1006.4 |
| 20260505083213 | 42 | 273 | 2.0 | 5.0 | 0.00 | 0.00 | 0.00 | 53 | 1006.4 |
| 20260505082709 | 42 | 238 | 1.0 | 3.0 | 0.00 | 0.00 | 0.00 | 53 | 1006.2 |
| 20260505082206 | 42 | 280 | 2.0 | 3.0 | 0.00 | 0.00 | 0.00 | 53 | 1006.2 |
| 20260505081702 | 42 | 263 | 1.0 | 5.0 | 0.00 | 0.00 | 0.00 | 53 | 1006.1 |
| 20260505081200 | 42 | 278 | 2.0 | 3.0 | 0.00 | 0.00 | 0.00 | 53 | 1005.9 |
| 20260505080657 | 42 | 288 | 3.0 | 6.0 | 0.00 | 0.00 | 0.00 | 53 | 1006.0 |
| 20260505080152 | 43 | 270 | 3.0 | 5.0 | 0.00 | 0.00 | 0.00 | 53 | 1006.0 |
| 20260505075648 | 43 | 199 | 3.0 | 3.0 | 0.00 | 0.00 | 0.00 | 53 | 1006.1 |
| 20260505075145 | 43 | 271 | 2.0 | 3.0 | 0.00 | 0.00 | 0.00 | 52 | 1006.0 |
| 20260505074642 | 43 | 317 | 3.0 | 5.0 | 0.00 | 0.00 | 0.00 | 52 | 1006.0 |
| 20260505074139 | 43 | 251 | 1.0 | 3.0 | 0.00 | 0.00 | 0.00 | 52 | 1005.8 |
| 20260505073637 | 43 | 270 | 2.0 | 5.0 | 0.00 | 0.00 | 0.00 | 52 | 1005.9 |
| 20260505073135 | 43 | 325 | 2.0 | 5.0 | 0.00 | 0.00 | 0.00 | 52 | 1005.8 |
| 20260505072630 | 44 | 304 | 3.0 | 5.0 | 0.00 | 0.00 | 0.00 | 52 | 1005.8 |
| 20260505072127 | 43 | 278 | 3.0 | 6.0 | 0.00 | 0.00 | 0.00 | 52 | 1005.9 |
| 20260505071623 | 43 | 283 | 1.0 | 2.0 | 0.00 | 0.00 | 0.00 | 52 | 1005.9 |
| 20260505071121 | 44 | 274 | 2.0 | 5.0 | 0.00 | 0.00 | 0.00 | 52 | 1006.0 |
| 20260505070618 | 43 | 268 | 2.0 | 2.0 | 0.00 | 0.00 | 0.00 | 52 | 1005.9 |
| 20260505070114 | 44 | 269 | 2.0 | 2.0 | 0.00 | 0.00 | 0.00 | 52 | 1006.0 |
| 20260505065610 | 44 | 279 | 2.0 | 5.0 | 0.00 | 0.00 | 0.00 | 51 | 1006.0 |
| 20260505065107 | 44 | 249 | 1.0 | 5.0 | 0.00 | 0.00 | 0.00 | 51 | 1006.2 |
| 20260505064604 | 44 | 269 | 3.0 | 7.0 | 0.00 | 0.00 | 0.00 | 51 | 1006.1 |
| 20260505064102 | 44 | 309 | 3.0 | 3.0 | 0.00 | 0.00 | 0.00 | 52 | 1005.9 |
| 20260505063559 | 44 | 296 | 2.0 | 5.0 | 0.00 | 0.00 | 0.00 | 52 | 1006.1 |
| 20260505063055 | 44 | 282 | 2.0 | 3.0 | 0.00 | 0.00 | 0.00 | 53 | 1006.0 |
| 20260505062551 | 44 | 324 | 3.0 | 7.0 | 0.00 | 0.00 | 0.00 | 53 | 1006.1 |
| 20260505062049 | 44 | 278 | 3.0 | 5.0 | 0.00 | 0.00 | 0.00 | 52 | 1006.0 |
| 20260505061546 | 45 | 276 | 2.0 | 3.0 | 0.00 | 0.00 | 0.00 | 53 | 1006.1 |
| 20260505061044 | 45 | 273 | 3.0 | 5.0 | 0.00 | 0.00 | 0.00 | 53 | 1006.0 |
| 20260505060541 | 44 | 262 | 2.0 | 7.0 | 0.00 | 0.00 | 0.00 | 54 | 1005.9 |
| 20260505060038 | 44 | 210 | 2.0 | 5.0 | 0.00 | 0.00 | 0.00 | 55 | 1006.0 |
| 20260505055533 | 43 | 333 | 3.0 | 5.0 | 0.00 | 0.00 | 0.00 | 57 | 1006.0 |
| 20260505055030 | 43 | 230 | 0.0 | 2.0 | 0.00 | 0.00 | 0.00 | 56 | 1006.1 |
| 20260505054527 | 44 | 246 | 1.0 | 2.0 | 0.00 | 0.00 | 0.00 | 54 | 1006.1 |
| 20260505054026 | 43 | 270 | 0.0 | 3.0 | 0.00 | 0.00 | 0.00 | 55 | 1005.9 |
| 20260505053522 | 42 | 233 | 0.0 | 1.0 | 0.00 | 0.00 | 0.00 | 56 | 1006.0 |
| 20260505053019 | 42 | 216 | 0.0 | 1.0 | 0.00 | 0.00 | 0.00 | 56 | 1005.9 |
| 20260505052516 | 43 | 227 | 1.0 | 2.0 | 0.00 | 0.00 | 0.00 | 55 | 1006.0 |
| 20260505052014 | 43 | 231 | 1.0 | 1.0 | 0.00 | 0.00 | 0.00 | 55 | 1005.9 |
| 20260505051510 | 43 | 227 | 1.0 | 2.0 | 0.00 | 0.00 | 0.00 | 54 | 1005.9 |
| 20260505051008 | 43 | 236 | 1.0 | 1.0 | 0.00 | 0.00 | 0.00 | 54 | 1005.9 |
| 20260505050506 | 43 | 239 | 1.0 | 2.0 | 0.00 | 0.00 | 0.00 | 54 | 1005.6 |
| 20260505041434 | 44 | 240 | 1.0 | 2.0 | 0.00 | 0.00 | 0.00 | 50 | 1005.9 |
| 20260505040931 | 45 | 254 | 1.0 | 2.0 | 0.00 | 0.00 | 0.00 | 50 | 1005.6 |
| 20260505040428 | 45 | 219 | 1.0 | 2.0 | 0.00 | 0.00 | 0.00 | 49 | 1005.5 |
| 20260505035925 | 45 | 241 | 1.0 | 2.0 | 0.00 | 0.00 | 0.00 | 49 | 1005.6 |
| 20260505035421 | 45 | 227 | 1.0 | 2.0 | 0.00 | 0.00 | 0.00 | 48 | 1005.5 |
| 20260505034919 | 45 | 232 | 1.0 | 2.0 | 0.00 | 0.00 | 0.00 | 48 | 1005.5 |
| 20260505034415 | 46 | 234 | 1.0 | 2.0 | 0.00 | 0.00 | 0.00 | 47 | 1005.7 |
| 20260505033912 | 46 | 240 | 1.0 | 3.0 | 0.00 | 0.00 | 0.00 | 46 | 1005.7 |
| 20260505033408 | 46 | 257 | 1.0 | 2.0 | 0.00 | 0.00 | 0.00 | 46 | 1005.6 |
| 20260505032907 | 46 | 248 | 2.0 | 3.0 | 0.00 | 0.00 | 0.00 | 45 | 1005.7 |
| 20260505032403 | 47 | 252 | 1.0 | 1.0 | 0.00 | 0.00 | 0.00 | 46 | 1005.7 |
| 20260505031900 | 47 | 247 | 0.0 | 2.0 | 0.00 | 0.00 | 0.00 | 45 | 1005.7 |
| 20260505031357 | 47 | 244 | 1.0 | 1.0 | 0.00 | 0.00 | 0.00 | 45 | 1005.7 |
| 20260505030854 | 47 | 262 | 1.0 | 2.0 | 0.00 | 0.00 | 0.00 | 44 | 1005.4 |
| 20260505030344 | 47 | 255 | 2.0 | 3.0 | 0.00 | 0.00 | 0.00 | 44 | 1005.6 |
| 20260505025840 | 48 | 251 | 1.0 | 3.0 | 0.00 | 0.00 | 0.00 | 43 | 1005.4 |
| 20260505025338 | 48 | 252 | 1.0 | 3.0 | 0.00 | 0.00 | 0.00 | 43 | 1005.4 |
| 20260505024836 | 48 | 287 | 3.0 | 5.0 | 0.00 | 0.00 | 0.00 | 43 | 1005.3 |
| 20260505024334 | 48 | 266 | 0.0 | 3.0 | 0.00 | 0.00 | 0.00 | 43 | 1005.3 |
| 20260505023830 | 48 | 251 | 1.0 | 2.0 | 0.00 | 0.00 | 0.00 | 43 | 1005.1 |
| 20260505023327 | 48 | 244 | 2.0 | 3.0 | 0.00 | 0.00 | 0.00 | 42 | 1005.3 |
| 20260505022825 | 48 | 258 | 2.0 | 6.0 | 0.00 | 0.00 | 0.00 | 41 | 1005.1 |
| 20260505022321 | 48 | 264 | 1.0 | 2.0 | 0.00 | 0.00 | 0.00 | 41 | 1005.1 |
| 20260505021819 | 48 | 292 | 3.0 | 8.0 | 0.00 | 0.00 | 0.00 | 40 | 1005.1 |
| 20260505021315 | 49 | 259 | 1.0 | 6.0 | 0.00 | 0.00 | 0.00 | 41 | 1004.7 |
| 20260505020811 | 49 | 258 | 3.0 | 7.0 | 0.00 | 0.00 | 0.00 | 42 | 1004.7 |
| 20260505020307 | 49 | 289 | 3.0 | 5.0 | 0.00 | 0.00 | 0.00 | 42 | 1004.8 |
| 20260505015804 | 49 | 309 | 7.0 | 8.0 | 0.00 | 0.00 | 0.00 | 42 | 1004.5 |
| 20260505015301 | 49 | 274 | 4.0 | 9.0 | 0.00 | 0.00 | 0.00 | 42 | 1004.5 |
| 20260505014758 | 50 | 310 | 4.0 | 10.0 | 0.00 | 0.00 | 0.00 | 42 | 1004.5 |
| 20260505014255 | 50 | 279 | 2.0 | 8.0 | 0.00 | 0.00 | 0.00 | 42 | 1004.2 |
| 20260505013751 | 50 | 274 | 5.0 | 7.0 | 0.00 | 0.00 | 0.00 | 41 | 1004.1 |
| 20260505013249 | 50 | 278 | 4.0 | 15.0 | 0.00 | 0.00 | 0.00 | 41 | 1004.0 |
| 20260505012747 | 51 | 292 | 6.0 | 7.0 | 0.00 | 0.00 | 0.00 | 41 | 1003.9 |
| 20260505012244 | 51 | 220 | 3.0 | 8.0 | 0.00 | 0.00 | 0.00 | 41 | 1003.5 |
| 20260505011739 | 51 | 280 | 6.0 | 11.0 | 0.00 | 0.00 | 0.00 | 41 | 1003.7 |
| 20260505011237 | 51 | 289 | 6.0 | 8.0 | 0.00 | 0.00 | 0.00 | 40 | 1003.5 |
| 20260505010732 | 52 | 311 | 4.0 | 9.0 | 0.00 | 0.00 | 0.00 | 40 | 1003.5 |
| 20260505010229 | 52 | 272 | 3.0 | 10.0 | 0.00 | 0.00 | 0.00 | 39 | 1003.4 |
| 20260505005726 | 52 | 271 | 5.0 | 7.0 | 0.00 | 0.00 | 0.00 | 39 | 1003.1 |
| 20260505005223 | 52 | 238 | 5.0 | 8.0 | 0.00 | 0.00 | 0.00 | 38 | 1002.9 |
| 20260505004720 | 52 | 315 | 8.0 | 9.0 | 0.00 | 0.00 | 0.00 | 38 | 1002.8 |
| 20260505004216 | 53 | 231 | 3.0 | 10.0 | 0.00 | 0.00 | 0.00 | 39 | 1003.0 |
| 20260505003713 | 53 | 260 | 3.0 | 8.0 | 0.00 | 0.00 | 0.00 | 39 | 1002.8 |
| 20260505003211 | 53 | 226 | 3.0 | 8.0 | 0.00 | 0.00 | 0.00 | 38 | 1002.8 |
| 20260505002707 | 53 | 325 | 5.0 | 8.0 | 0.00 | 0.00 | 0.00 | 38 | 1002.8 |
| 20260505002205 | 53 | 242 | 1.0 | 6.0 | 0.00 | 0.00 | 0.00 | 40 | 1002.9 |
| 20260505001702 | 53 | 265 | 4.0 | 6.0 | 0.00 | 0.00 | 0.00 | 39 | 1002.6 |
| 20260505001159 | 53 | 237 | 3.0 | 5.0 | 0.00 | 0.00 | 0.00 | 39 | 1002.6 |
| 20260505000656 | 54 | 263 | 6.0 | 8.0 | 0.00 | 0.00 | 0.00 | 39 | 1002.6 |
| 20260505000154 | 54 | 20 | 5.0 | 7.0 | 0.00 | 0.00 | 0.00 | 39 | 1002.3 |
| 20260504235650 | 54 | 267 | 1.0 | 7.0 | 0.00 | 0.00 | 0.00 | 40 | 1002.4 |
| 20260504235147 | 54 | 324 | 6.0 | 7.0 | 0.00 | 0.00 | 0.00 | 40 | 1002.4 |
| 20260504234644 | 54 | 310 | 3.0 | 8.0 | 0.00 | 0.00 | 0.00 | 40 | 1002.3 |
| 20260504234142 | 54 | 308 | 5.0 | 9.0 | 0.00 | 0.00 | 0.00 | 40 | 1002.3 |
| 20260504233637 | 54 | 261 | 3.0 | 9.0 | 0.00 | 0.00 | 0.00 | 39 | 1002.2 |
| 20260504233133 | 55 | 272 | 6.0 | 7.0 | 0.00 | 0.00 | 0.00 | 38 | 1002.1 |
| 20260504232631 | 55 | 242 | 2.0 | 10.0 | 0.00 | 0.00 | 0.00 | 40 | 1002.0 |
| 20260504232128 | 55 | 270 | 5.0 | 7.0 | 0.00 | 0.00 | 0.00 | 40 | 1002.1 |
| 20260504231624 | 55 | 315 | 5.0 | 8.0 | 0.00 | 0.00 | 0.00 | 40 | 1001.9 |
| 20260504231121 | 55 | 252 | 3.0 | 11.0 | 0.00 | 0.00 | 0.00 | 39 | 1002.0 |
| 20260504230616 | 56 | 298 | 7.0 | 9.0 | 0.00 | 0.00 | 0.00 | 39 | 1002.0 |
| 20260504230116 | 56 | 263 | 1.0 | 6.0 | 0.00 | 0.00 | 0.00 | 39 | 1001.7 |
| 20260504225613 | 57 | 295 | 6.0 | 8.0 | 0.00 | 0.00 | 0.00 | 38 | 1001.6 |
| 20260504225109 | 58 | 289 | 5.0 | 9.0 | 0.00 | 0.00 | 0.00 | 38 | 1001.7 |
| 20260504224606 | 57 | 306 | 8.0 | 11.0 | 0.00 | 0.00 | 0.00 | 37 | 1001.6 |
| 20260504224103 | 57 | 288 | 3.0 | 10.0 | 0.00 | 0.00 | 0.00 | 38 | 1001.3 |
| 20260504223600 | 57 | 284 | 5.0 | 9.0 | 0.00 | 0.00 | 0.00 | 38 | 1001.2 |
| 20260504223055 | 57 | 282 | 7.0 | 16.0 | 0.00 | 0.00 | 0.00 | 38 | 1001.1 |
| 20260504222553 | 58 | 319 | 8.0 | 11.0 | 0.00 | 0.00 | 0.00 | 38 | 1001.0 |
| 20260504222050 | 59 | 233 | 5.0 | 8.0 | 0.00 | 0.00 | 0.00 | 36 | 1000.9 |
| 20260504221547 | 59 | 242 | 4.0 | 15.0 | 0.00 | 0.00 | 0.00 | 37 | 1000.7 |
| 20260504221044 | 60 | 295 | 5.0 | 14.0 | 0.00 | 0.00 | 0.00 | 37 | 1000.7 |
| 20260504220540 | 59 | 354 | 4.0 | 8.0 | 0.00 | 0.00 | 0.00 | 36 | 1000.5 |
| 20260504220038 | 58 | 236 | 4.0 | 6.0 | 0.00 | 0.00 | 0.00 | 37 | 1000.5 |
| 20260504215534 | 60 | 284 | 4.0 | 9.0 | 0.00 | 0.00 | 0.00 | 35 | 1000.4 |
| 20260504215032 | 60 | 282 | 6.0 | 10.0 | 0.00 | 0.00 | 0.00 | 36 | 1000.5 |
| 20260504214527 | 60 | 303 | 3.0 | 11.0 | 0.00 | 0.00 | 0.00 | 36 | 1000.4 |
| 20260504214024 | 60 | 259 | 7.0 | 10.0 | 0.00 | 0.00 | 0.00 | 35 | 1000.2 |
| 20260504213521 | 61 | 259 | 3.0 | 13.0 | 0.00 | 0.00 | 0.00 | 35 | 1000.0 |
| 20260504213018 | 60 | 237 | 4.0 | 13.0 | 0.00 | 0.00 | 0.00 | 37 | 999.9 |
| 20260504212514 | 59 | 258 | 5.0 | 10.0 | 0.00 | 0.00 | 0.00 | 37 | 999.9 |
| 20260504212011 | 61 | 267 | 7.0 | 16.0 | 0.00 | 0.00 | 0.00 | 36 | 1000.0 |
| 20260504211508 | 60 | 228 | 4.0 | 10.0 | 0.00 | 0.00 | 0.00 | 36 | 999.8 |
| 20260504211005 | 61 | 312 | 9.0 | 10.0 | 0.00 | 0.00 | 0.00 | 36 | 999.8 |
| 20260504210502 | 62 | 292 | 7.0 | 9.0 | 0.00 | 0.00 | 0.00 | 35 | 999.9 |
| 20260504205958 | 62 | 244 | 7.0 | 18.0 | 0.00 | 0.00 | 0.00 | 35 | 999.8 |
| 20260504205456 | 61 | 259 | 4.0 | 13.0 | 0.00 | 0.00 | 0.00 | 36 | 1000.1 |
| 20260504204954 | 61 | 247 | 5.0 | 8.0 | 0.00 | 0.00 | 0.00 | 36 | 999.8 |
| 20260504204452 | 60 | 268 | 4.0 | 11.0 | 0.00 | 0.00 | 0.00 | 37 | 999.8 |
| 20260504203951 | 61 | 322 | 8.0 | 14.0 | 0.00 | 0.00 | 0.00 | 35 | 999.6 |
| 20260504203449 | 62 | 266 | 6.0 | 7.0 | 0.00 | 0.00 | 0.00 | 35 | 999.5 |
| 20260504202944 | 62 | 269 | 5.0 | 13.0 | 0.00 | 0.00 | 0.00 | 36 | 999.6 |
| 20260504202441 | 62 | 283 | 4.0 | 10.0 | 0.00 | 0.00 | 0.00 | 36 | 999.5 |
| 20260504201938 | 62 | 258 | 4.0 | 11.0 | 0.00 | 0.00 | 0.00 | 36 | 999.5 |
| 20260504201435 | 62 | 258 | 6.0 | 9.0 | 0.00 | 0.00 | 0.00 | 36 | 999.5 |
| 20260504200933 | 63 | 283 | 5.0 | 11.0 | 0.00 | 0.00 | 0.00 | 36 | 999.5 |
| 20260504200429 | 62 | 279 | 4.0 | 11.0 | 0.00 | 0.00 | 0.00 | 34 | 999.5 |
| 20260504195926 | 62 | 265 | 6.0 | 9.0 | 0.00 | 0.00 | 0.00 | 34 | 999.4 |
| 20260504195422 | 61 | 272 | 4.0 | 8.0 | 0.00 | 0.00 | 0.00 | 35 | 999.4 |
| 20260504194919 | 62 | 303 | 3.0 | 6.0 | 0.00 | 0.00 | 0.00 | 35 | 999.0 |
| 20260504194414 | 62 | 259 | 5.0 | 13.0 | 0.00 | 0.00 | 0.00 | 35 | 999.3 |
| 20260504193911 | 62 | 352 | 5.0 | 8.0 | 0.00 | 0.00 | 0.00 | 32 | 999.1 |
| 20260504193408 | 62 | 286 | 6.0 | 9.0 | 0.00 | 0.00 | 0.00 | 33 | 999.1 |
| 20260504192907 | 63 | 279 | 5.0 | 9.0 | 0.00 | 0.00 | 0.00 | 33 | 999.1 |
| 20260504192404 | 63 | 252 | 6.0 | 8.0 | 0.00 | 0.00 | 0.00 | 35 | 999.1 |
| 20260504191902 | 62 | 276 | 7.0 | 9.0 | 0.00 | 0.00 | 0.00 | 33 | 999.0 |
| 20260504191400 | 62 | 267 | 9.0 | 13.0 | 0.00 | 0.00 | 0.00 | 33 | 999.0 |
| 20260504190855 | 62 | 264 | 6.0 | 14.0 | 0.00 | 0.00 | 0.00 | 32 | 999.0 |
| 20260504190351 | 63 | 283 | 6.0 | 13.0 | 0.00 | 0.00 | 0.00 | 31 | 998.9 |
| 20260504185848 | 62 | 348 | 5.0 | 7.0 | 0.00 | 0.00 | 0.00 | 34 | 998.7 |
| 20260504185345 | 61 | 264 | 4.0 | 9.0 | 0.00 | 0.00 | 0.00 | 34 | 998.9 |
| 20260504184841 | 61 | 278 | 6.0 | 14.0 | 0.00 | 0.00 | 0.00 | 32 | 998.8 |
| 20260504184337 | 62 | 240 | 7.0 | 11.0 | 0.00 | 0.00 | 0.00 | 32 | 998.8 |
| 20260504183833 | 63 | 261 | 4.0 | 8.0 | 0.00 | 0.00 | 0.00 | 33 | 998.5 |
| 20260504183331 | 63 | 235 | 6.0 | 9.0 | 0.00 | 0.00 | 0.00 | 32 | 998.3 |
| 20260504182828 | 63 | 247 | 3.0 | 11.0 | 0.00 | 0.00 | 0.00 | 36 | 998.5 |
| 20260504182325 | 63 | 241 | 4.0 | 9.0 | 0.00 | 0.00 | 0.00 | 36 | 998.5 |
| 20260504181822 | 64 | 299 | 4.0 | 8.0 | 0.00 | 0.00 | 0.00 | 38 | 997.9 |
| 20260504181320 | 64 | 228 | 5.0 | 9.0 | 0.00 | 0.00 | 0.00 | 37 | 998.0 |
| 20260504180819 | 64 | 291 | 4.0 | 8.0 | 0.00 | 0.00 | 0.00 | 36 | 997.8 |
| 20260504180317 | 64 | 281 | 7.0 | 11.0 | 0.00 | 0.00 | 0.00 | 36 | 998.0 |
| 20260504175814 | 64 | 326 | 4.0 | 10.0 | 0.00 | 0.00 | 0.00 | 36 | 997.8 |
| 20260504175311 | 64 | 270 | 8.0 | 11.0 | 0.00 | 0.00 | 0.00 | 35 | 997.8 |
| 20260504174809 | 64 | 291 | 3.0 | 7.0 | 0.00 | 0.00 | 0.00 | 35 | 997.8 |
| 20260504174306 | 64 | 192 | 2.0 | 5.0 | 0.00 | 0.00 | 0.00 | 37 | 997.8 |
| 20260504173803 | 63 | 232 | 5.0 | 11.0 | 0.00 | 0.00 | 0.00 | 35 | 997.7 |
| 20260504173300 | 64 | 291 | 5.0 | 8.0 | 0.00 | 0.00 | 0.00 | 34 | 997.6 |
| 20260504172756 | 64 | 259 | 6.0 | 14.0 | 0.00 | 0.00 | 0.00 | 35 | 997.7 |
| 20260504172253 | 64 | 317 | 10.0 | 13.0 | 0.00 | 0.00 | 0.00 | 35 | 997.6 |
| 20260504171749 | 63 | 245 | 4.0 | 7.0 | 0.00 | 0.00 | 0.00 | 36 | 997.5 |
| 20260504171246 | 63 | 217 | 6.0 | 8.0 | 0.00 | 0.00 | 0.00 | 36 | 997.5 |
| 20260504170743 | 64 | 252 | 4.0 | 9.0 | 0.00 | 0.00 | 0.00 | 37 | 997.4 |
| 20260504170240 | 63 | 263 | 6.0 | 7.0 | 0.00 | 0.00 | 0.00 | 35 | 997.6 |
| 20260504160159 | 64 | 240 | 6.0 | 9.0 | 0.00 | 0.00 | 0.00 | 35 | 997.7 |
| 20260504151126 | 61 | 310 | 9.0 | 14.0 | 0.00 | 0.00 | 0.00 | 35 | 997.5 |
| 20260504150624 | 60 | 285 | 6.0 | 8.0 | 0.00 | 0.00 | 0.00 | 36 | 997.3 |
| 20260504150121 | 61 | 271 | 2.0 | 8.0 | 0.00 | 0.00 | 0.00 | 38 | 997.3 |
| 20260504141049 | 63 | 252 | 5.0 | 8.0 | 0.00 | 0.00 | 0.00 | 45 | 996.9 |
| 20260504140546 | 63 | 238 | 4.0 | 11.0 | 0.00 | 0.00 | 0.00 | 44 | 996.8 |
| 20260504130510 | 62 | 276 | 3.0 | 9.0 | 0.00 | 0.00 | 0.00 | 44 | 996.1 |
| 20260504110358 | 55 | 222 | 2.0 | 7.0 | 0.00 | 0.00 | 0.00 | 50 | 995.3 |